Bedford, Massachusetts, United States (01730)
Lat: 42.49N, Lon: 71.28W
Wx Zone: MAZ005
Local Info
Past Weather Observations for Wednesday, October 15, 2014

NOTE: This archive is for the closest National Weather Service station to Bedford. Information may differ from the station used for current weather conditions.

Click here for Long-term Archive

Time Weather Temperature Dewpoint Humidity Pressure Winds Precip Visibility
23:56
Mostly Cloudy
66°F / 19°C 64°F / 18°C 94% 29.95 in
(1014 mb)
SE 5.8 mph
(SE 9 kph)
- 10SM
23:52
Mostly Cloudy
66°F / 19°C 64°F / 18°C 94% 29.95 in
(1014 mb)
SE 5.8 mph
(SE 9 kph)
- 10SM
22:56
Partly Cloudy
66°F / 19°C 64°F / 18°C 94% 29.98 in
(1015 mb)
SE 6.9 mph
(SE 11 kph)
- 10SM
22:03
Overcast
66°F / 19°C 64°F / 18°C 94% 29.98 in
(1015 mb)
SE 8.1 mph
(SE 13 kph)
- 10SM
21:56
Overcast
68°F / 20°C 64°F / 18°C 88% 30.01 in
(1016 mb)
SE 6.9 mph
(SE 11 kph)
- 10SM
20:56
Overcast
68°F / 20°C 64°F / 18°C 88% 30.01 in
(1016 mb)
SE 5.8 mph
(SE 9 kph)
- 10SM
20:53
Overcast
68°F / 20°C 64°F / 18°C 88% 30.01 in
(1016 mb)
SE 5.8 mph
(SE 9 kph)
- 10SM
19:56
Mostly Cloudy
70°F / 21°C 64°F / 18°C 83% 30.04 in
(1017 mb)
SE 5.8 mph
(SE 9 kph)
- 10SM
18:56
Partly Cloudy
70°F / 21°C 64°F / 18°C 83% 30.04 in
(1017 mb)
SSE 3.5 mph
(SSE 6 kph)
- 10SM
17:56
Partly Cloudy
72°F / 22°C 64°F / 18°C 78% 30.01 in
(1016 mb)
SSE 10.4 mph
(SSE 17 kph)
- 10SM
16:56
Partly Cloudy
72°F / 22°C 64°F / 18°C 78% 30.01 in
(1016 mb)
SSE 10.4 mph
(SSE 17 kph)
- 10SM
15:56
Partly Cloudy
75°F / 24°C 64°F / 18°C 69% 30.01 in
(1016 mb)
S 9.2 mph
(S 15 kph)
- 10SM
14:56
Overcast
75°F / 24°C 63°F / 17°C 65% 30.01 in
(1016 mb)
S 10.4 mph
(S 17 kph)
- 10SM
13:56
Mostly Cloudy
77°F / 25°C 63°F / 17°C 61% 30.04 in
(1017 mb)
S 9.2 mph
(S 15 kph)
- 10SM
12:56
Mostly Cloudy
79°F / 26°C 64°F / 18°C 61% 30.04 in
(1017 mb)
S 11.5 mph
(S 19 kph)
- 10SM
11:56
Mostly Cloudy
77°F / 25°C 64°F / 18°C 65% 30.04 in
(1017 mb)
S 12.7 mph
(S 20 kph)
- 10SM
10:56
Partly Cloudy
77°F / 25°C 64°F / 18°C 65% 30.09 in
(1019 mb)
SSE 15 mph
(SSE 24 kph)
- 10SM
10:44
Partly Cloudy
77°F / 25°C 66°F / 19°C 69% 30.09 in
(1019 mb)
SSE 11.5 mph
(SSE 19 kph)
- 10SM
09:56
Mostly Cloudy
75°F / 24°C 66°F / 19°C 74% 30.09 in
(1019 mb)
SSE 8.1 mph
(SSE 13 kph)
- 10SM
09:16
Mostly Cloudy
72°F / 22°C 64°F / 18°C 78% 30.09 in
(1019 mb)
S 10.4 mph
(S 17 kph)
- 10SM
08:56
Mostly Cloudy
70°F / 21°C 64°F / 18°C 83% 30.09 in
(1019 mb)
SW 8.1 mph
(SW 13 kph)
- 10SM
08:03
Overcast
66°F / 19°C 64°F / 18°C 94% 30.12 in
(1020 mb)
SSE 5.8 mph
(SSE 9 kph)
- 10SM
07:56
Mostly Cloudy
66°F / 19°C 64°F / 18°C 94% 30.12 in
(1020 mb)
S 5.8 mph
(S 9 kph)
- 10SM
07:53
Mostly Cloudy
66°F / 19°C 64°F / 18°C 94% 30.12 in
(1020 mb)
S 5.8 mph
(S 9 kph)
- 10SM
07:47
Mostly Cloudy
64°F / 18°C 64°F / 18°C 100% 30.12 in
(1020 mb)
S 5.8 mph
(S 9 kph)
- 10SM
06:56
Partly Cloudy
Fog
57°F / 14°C 57°F / 14°C 100% 30.12 in
(1020 mb)
Calm - 10SM
06:41
Partly Cloudy
Fog
55°F / 13°C 55°F / 13°C 100% 30.12 in
(1020 mb)
Calm - 8SM
06:34
Mostly Cloudy
Fog
55°F / 13°C 55°F / 13°C 100% 30.12 in
(1020 mb)
Calm - 3SM
06:31
Mostly Cloudy
Fog
55°F / 13°C 55°F / 13°C 100% 30.12 in
(1020 mb)
Calm - 1SM
06:03
Overcast
Fog
55°F / 13°C 55°F / 13°C 100% 30.12 in
(1020 mb)
Calm - 1/4SM
05:56
Partly Cloudy
Fog
54°F / 12°C 54°F / 12°C 100% 30.12 in
(1020 mb)
Calm - 10SM
05:38
Overcast
Fog
55°F / 13°C 55°F / 13°C 100% 30.12 in
(1020 mb)
Calm - 1/4SM
05:26
Overcast
Fog
55°F / 13°C 55°F / 13°C 100% 30.12 in
(1020 mb)
Calm - 1/4SM
05:16
Overcast
Fog
55°F / 13°C 55°F / 13°C 100% 30.12 in
(1020 mb)
Calm - 1/2SM
04:56
Overcast
Fog
57°F / 14°C 57°F / 14°C 100% 30.12 in
(1020 mb)
Calm - 1/4SM
04:28
Overcast
Fog
55°F / 13°C 55°F / 13°C 100% 30.12 in
(1020 mb)
Calm - 1/4SM
04:13
Overcast
Fog
57°F / 14°C 57°F / 14°C 100% 30.12 in
(1020 mb)
Calm - 1/2SM
04:04
Overcast
Fog And Mist
57°F / 14°C 57°F / 14°C 100% 30.12 in
(1020 mb)
Calm - 1 3/4SM
03:56
Overcast
Fog And Mist
57°F / 14°C 57°F / 14°C 100% 30.12 in
(1020 mb)
Calm - 3SM
03:54
Overcast
Fog And Mist
57°F / 14°C 57°F / 14°C 100% 30.12 in
(1020 mb)
Calm - 3SM
03:46
Overcast
Fog And Mist
57°F / 14°C 57°F / 14°C 100% 30.12 in
(1020 mb)
Calm - 1 1/2SM
03:32
Mostly Cloudy
Fog
55°F / 13°C 55°F / 13°C 100% 30.12 in
(1020 mb)
Calm - 1/2SM
03:15
Partly Cloudy
Fog And Mist
59°F / 15°C 59°F / 15°C 100% 30.12 in
(1020 mb)
Calm - 1 1/2SM
02:56
Clear
63°F / 17°C 61°F / 16°C 94% 30.12 in
(1020 mb)
SSE 3.5 mph
(SSE 6 kph)
- 10SM
01:56
Partly Cloudy
63°F / 17°C 61°F / 16°C 94% 30.12 in
(1020 mb)
S 4.6 mph
(S 7 kph)
- 10SM
00:56
Partly Cloudy
61°F / 16°C 61°F / 16°C 100% 30.15 in
(1021 mb)
SSE 3.5 mph
(SSE 6 kph)
- 10SM
Time Weather Temperature Dewpoint Humidity Pressure Winds Precip Visibility


Weather for websites

WeatherForYou.com, LLC is not responsible for any damages or problems caused by this service. Current weather conditions are obtained from the closest station including government and personal stations which may have varying degrees of accuracy. Weather forecasts are derived from the NOAA NDFD. Like all things, this site belongs to Jesus Christ... He just trusts me to maintain it. If you have any questions or comments email webmaster@weatherforyou.com

Copyright © 2014, WeatherForYou.com LLC. All rights reserved.